Weather History for KHLX - March, 2014

Change the Weather History Date:

Monday, March 24, 2014

  Actual Average (KBLF) Record (KBLF)
Temperature  
Mean Temperature 32 °F 48 °F  
Max Temperature 44 °F 57 °F 77 °F (2007)
Min Temperature 21 °F 39 °F 15 °F (1960)
Degree Days  
Heating Degree Days 32 17  
Month to date heating degree days 503  
Since 1 July heating degree days 3996  
Cooling Degree Days 0 0  
Month to date cooling degree days 0  
Year to date cooling degree days 0  
Moisture  
Dew Point 3 °F    
Average Humidity 33    
Maximum Humidity 55    
Minimum Humidity 8    
Precipitation  
Precipitation 0.00 in 0.12 in 0.91 in (1979)
Month to date precipitation 2.71  
Year to date precipitation 8.37  
Snow  
Snow 0.00 in - - ()
Month to date snowfall  
Since 1 July snowfall  
Snow Depth -    
Sea Level Pressure  
Sea Level Pressure 30.12 in    
Wind  
Wind Speed 10 mph (NW)    
Max Wind Speed 18 mph    
Max Gust Speed 21 mph    
Visibility 10 miles    
Events      
T = Trace of Precipitation, MM = Missing Value Source: NWS Daily Summary

Daily Weather History Graph

Daily Weather History Graph

Search for Another Location

Airport or City:

Trip Planner

Search our weather history database for the weather conditions in past years. The results will help you decide how hot, cold, wet, or windy it might be!

Date:

Astronomy

Mar. 24, 2014 Rise Set
Actual Time 7:20 AM EDT 7:38 PM EDT
Civil Twilight 6:55 AM EDT 8:04 PM EDT
Nautical Twilight 6:24 AM EDT 8:34 PM EDT
Astronomical Twilight 5:54 AM EDT 9:05 PM EDT
Moon 2:41 AM EDT (3/24) 1:10 PM EDT (3/24)
Length of Visible Light 13h 09m
Length of Day
12h 17m
Last Quarter, 43% of the Moon is Illuminated
Mar 24
Last Quarter
Mar 30
New
Apr 7
First Quarter
Apr 15
Full
Apr 22
Last Quarter

Hourly Weather History & Observations

Time (EDT) Temp. Windchill Dew Point Humidity Pressure Visibility Wind Dir Wind Speed Gust Speed Precip Events Conditions
12:15 AM 30.2 °F 18.5 °F 15.8 °F 55% 30.13 in 10.0 mi NNW 17.3 mph 20.7 mph N/A   Clear
12:35 AM 30.2 °F 19.8 °F 14.0 °F 51% 30.13 in 10.0 mi NNW 13.8 mph 19.6 mph N/A   Clear
12:55 AM 30.2 °F 20.8 °F 12.2 °F 47% 30.14 in 10.0 mi NNW 11.5 mph 16.1 mph N/A   Clear
1:15 AM 28.4 °F 21.2 °F 14.0 °F 55% 30.14 in 10.0 mi North 6.9 mph - N/A   Clear
1:35 AM 28.4 °F 21.2 °F 12.2 °F 51% 30.15 in 10.0 mi NNW 6.9 mph - N/A   Clear
1:55 AM 28.4 °F 16.6 °F 10.4 °F 47% 30.15 in 10.0 mi NW 16.1 mph - N/A   Clear
2:15 AM 28.4 °F 17.0 °F 8.6 °F 43% 30.15 in 10.0 mi NW 15.0 mph 20.7 mph N/A   Clear
2:35 AM 26.6 °F 15.2 °F 8.6 °F 47% 30.15 in 10.0 mi NW 13.8 mph - N/A   Clear
2:55 AM 26.6 °F 15.7 °F 8.6 °F 47% 30.15 in 10.0 mi NW 12.7 mph - N/A   Clear
3:15 AM 26.6 °F 16.2 °F 8.6 °F 47% 30.14 in 10.0 mi NNW 11.5 mph 18.4 mph N/A   Clear
3:35 AM 26.6 °F 14.7 °F 6.8 °F 43% 30.13 in 10.0 mi NNW 15.0 mph - N/A   Clear
3:55 AM 26.6 °F 13.4 °F 6.8 °F 43% 30.14 in 10.0 mi NW 18.4 mph - N/A   Clear
4:15 AM 24.8 °F 13.4 °F 5.0 °F 43% 30.14 in 10.0 mi NW 12.7 mph - N/A   Clear
4:35 AM 24.8 °F 12.9 °F 5.0 °F 43% 30.13 in 10.0 mi NW 13.8 mph - N/A   Clear
4:55 AM 24.8 °F 11.9 °F 6.8 °F 46% 30.14 in 10.0 mi NW 16.1 mph - N/A   Clear
5:15 AM 24.8 °F 12.4 °F 6.8 °F 46% 30.14 in 10.0 mi NW 15.0 mph - N/A   Clear
5:35 AM 24.8 °F 14.0 °F 6.8 °F 46% 30.15 in 10.0 mi NW 11.5 mph - N/A   Clear
5:55 AM 24.8 °F 14.6 °F 6.8 °F 46% 30.16 in 10.0 mi NW 10.4 mph - N/A   Clear
6:15 AM 23.0 °F 14.7 °F 6.8 °F 50% 30.17 in 10.0 mi WNW 6.9 mph - N/A   Clear
6:35 AM 23.0 °F 14.7 °F 6.8 °F 50% 30.18 in 10.0 mi NW 6.9 mph - N/A   Clear
6:55 AM 23.0 °F 13.1 °F 6.8 °F 50% 30.18 in 10.0 mi NW 9.2 mph - N/A   Clear
7:15 AM 21.2 °F - 6.8 °F 54% 30.18 in 10.0 mi Calm Calm - N/A   Clear
7:35 AM 21.2 °F - 6.8 °F 54% 30.19 in 10.0 mi Calm Calm - N/A   Clear
7:55 AM 21.2 °F 16.4 °F 6.8 °F 54% 30.19 in 10.0 mi NNW 3.5 mph - N/A   Clear
8:15 AM 23.0 °F - 6.8 °F 50% 30.20 in 10.0 mi Calm Calm - N/A   Clear
8:35 AM 23.0 °F 15.8 °F 6.8 °F 50% 30.20 in 10.0 mi North 5.8 mph - N/A   Clear
8:55 AM 23.0 °F 13.9 °F 6.8 °F 50% 30.21 in 10.0 mi NNW 8.1 mph - N/A   Clear
9:15 AM 24.8 °F 16.9 °F 6.8 °F 46% 30.21 in 10.0 mi NNW 6.9 mph - N/A   Clear
9:35 AM 24.8 °F 20.5 °F 6.8 °F 46% 30.21 in 10.0 mi NNE 3.5 mph - N/A   Clear
9:55 AM 24.8 °F 16.1 °F 3.2 °F 40% 30.21 in 10.0 mi NW 8.1 mph - N/A   Clear
10:15 AM 26.6 °F 20.0 °F 3.2 °F 37% 30.21 in 10.0 mi NNW 5.8 mph - N/A   Clear
10:35 AM 26.6 °F 19.1 °F 3.2 °F 37% 30.21 in 10.0 mi WNW 6.9 mph - N/A   Clear
10:55 AM 28.4 °F 21.2 °F 3.2 °F 34% 30.20 in 10.0 mi West 6.9 mph - N/A   Clear
11:15 AM 28.4 °F 22.2 °F 3.2 °F 34% 30.20 in 10.0 mi North 5.8 mph - N/A   Clear
11:35 AM 30.2 °F 23.4 °F 3.2 °F 32% 30.18 in 10.0 mi NNW 6.9 mph - N/A   Clear
11:55 AM 32.0 °F 27.5 °F 3.2 °F 30% 30.18 in 10.0 mi West 4.6 mph - N/A   Clear
12:15 PM 33.8 °F 26.4 °F -0.4 °F 23% 30.18 in 10.0 mi West 9.2 mph - N/A   Clear
12:35 PM 33.8 °F 27.0 °F -0.4 °F 23% 30.17 in 10.0 mi West 8.1 mph 16.1 mph N/A   Clear
12:55 PM 35.6 °F 29.2 °F -0.4 °F 22% 30.16 in 10.0 mi NW 8.1 mph - N/A   Clear
1:15 PM 35.6 °F 26.6 °F -7.6 °F 16% 30.16 in 10.0 mi WNW 13.8 mph 19.6 mph N/A   Clear
1:35 PM 37.4 °F 30.8 °F -7.6 °F 15% 30.14 in 10.0 mi NNW 9.2 mph 20.7 mph N/A   Clear
2:15 PM 37.4 °F 30.8 °F -11.2 °F 12% 30.12 in 10.0 mi NW 9.2 mph 16.1 mph N/A   Clear
2:35 PM 39.2 °F 31.6 °F -14.8 °F 10% 30.10 in 10.0 mi NW 12.7 mph 18.4 mph N/A   Clear
2:55 PM 39.2 °F 31.2 °F -18.4 °F 8% 30.09 in 10.0 mi NW 13.8 mph 20.7 mph N/A   Clear
3:15 PM 42.8 °F 36.2 °F -14.8 °F 8% 30.07 in 10.0 mi NW 12.7 mph 18.4 mph N/A   Clear
3:35 PM 42.8 °F 37.5 °F -11.2 °F 10% 30.07 in 10.0 mi WNW 9.2 mph 19.6 mph N/A   Clear
3:55 PM 42.8 °F 39.3 °F -13.0 °F 9% 30.07 in 10.0 mi West 5.8 mph 18.4 mph N/A   Clear
4:15 PM 42.8 °F 36.2 °F -9.4 °F 11% 30.06 in 10.0 mi NNW 12.7 mph 17.3 mph N/A   Clear
4:35 PM 42.8 °F 36.2 °F -9.4 °F 11% 30.05 in 10.0 mi WNW 12.7 mph 17.3 mph N/A   Clear
4:55 PM 44.6 °F 40.2 °F -5.8 °F 12% 30.05 in 10.0 mi WNW 8.1 mph - N/A   Clear
5:15 PM 42.8 °F 38.6 °F -5.8 °F 13% 30.04 in 10.0 mi WNW 6.9 mph - N/A   Clear
5:35 PM 44.6 °F 40.2 °F -5.8 °F 12% 30.04 in 10.0 mi NW 8.1 mph - N/A   Clear
5:55 PM 44.6 °F 40.2 °F -5.8 °F 12% 30.03 in 10.0 mi NW 8.1 mph 18.4 mph N/A   Clear
6:15 PM 44.6 °F 39.7 °F -5.8 °F 12% 30.04 in 10.0 mi WNW 9.2 mph - N/A   Clear
6:35 PM 44.6 °F 39.7 °F -9.4 °F 10% 30.04 in 10.0 mi WNW 9.2 mph - N/A   Clear
6:55 PM 42.8 °F 36.6 °F -9.4 °F 11% 30.04 in 10.0 mi NW 11.5 mph - N/A   Clear
7:15 PM 42.8 °F - -7.6 °F 12% 30.04 in 10.0 mi Calm Calm - N/A   Clear
7:35 PM 39.2 °F 35.0 °F 5.0 °F 24% 30.05 in 10.0 mi South 5.8 mph - N/A   Clear
7:55 PM 39.2 °F 37.0 °F 6.8 °F 26% 30.05 in 10.0 mi SSE 3.5 mph - N/A   Clear
8:15 PM 37.4 °F 33.8 °F 6.8 °F 28% 30.05 in 10.0 mi South 4.6 mph - N/A   Clear
8:35 PM 37.4 °F - 6.8 °F 28% 30.06 in 10.0 mi Calm Calm - N/A   Clear
8:55 PM 37.4 °F - 6.8 °F 28% 30.05 in 10.0 mi Calm Calm - N/A   Clear
9:15 PM 37.4 °F 34.9 °F 6.8 °F 28% 30.05 in 10.0 mi South 3.5 mph - N/A   Clear
9:35 PM 37.4 °F - 8.6 °F 30% 30.05 in 10.0 mi Calm Calm - N/A   Clear
9:55 PM 35.6 °F - 8.6 °F 33% 30.05 in 10.0 mi Calm Calm - N/A   Clear
10:15 PM 35.6 °F - 8.6 °F 33% 30.05 in 10.0 mi Calm Calm - N/A   Clear
10:35 PM 37.4 °F - 8.6 °F 30% 30.05 in 10.0 mi Calm Calm - N/A   Clear
10:55 PM 35.6 °F - 8.6 °F 33% 30.05 in 10.0 mi Calm Calm - N/A   Clear
11:15 PM 35.6 °F - 10.4 °F 35% 30.04 in 10.0 mi Calm Calm - N/A   Clear
11:35 PM 35.6 °F 32.8 °F 8.6 °F 33% 30.03 in 10.0 mi East 3.5 mph - N/A   Scattered Clouds
11:55 PM 32.0 °F - 10.4 °F 41% 30.02 in 10.0 mi Calm Calm - N/A   Mostly Cloudy